Starlink 35428

operational
NORAD ID: 66115 Int'l Des: 2025-237 Owner: SPXS Country: US Constellation: starlink
LEOCIRCULAR

Über Starlink 35428

Beschreibung wird geladen...

Live-Position

3D-Globus wird geladen...

Nächste Überflüge

Höhenverlauf

Altitude vs Time

uPlot chart will show altitude changes over time

Zweizeiliger Elementsatz

1 66115C 25237B 25298.72340278 -.01132800 00000+0 -20158-2 0 2983
2 66115 53.1553 319.2629 0001000 67.7197 124.2494 16.02237678 12
Epoch: 25. Okt. 2025 • Age: 151 hours

Aktueller Status

Höhe 293.9 km
Geschwindigkeit 7.73 km/s
Subsatellitenpunkt 5.84°N, 37.83°W
Startdatum 22. Okt. 2025
Alter 8 days
Typ internet

Technische Details

Klassifizierung Payload
Masse 575.00 kg
Trockenmasse 530.00 kg
Gesamtmasse 575.00 kg
Länge 0.30 m
Durchmesser 4.10 m
Spannweite 29.00 m
Form Box + pan
Hersteller SPXS
Bus-Typ Starlink V2MO
Phasenstatus In Orbit
Besitzer/Staat SPXS/US

Große Konstellationen

Loading constellations...